, NV

(GMT )
Las Vegas

Weather History for KBJN - October, 2012

Change the Weather History Date:

Thursday, October 4, 2012

  Actual Average Record
Temperature  
Mean Temperature 63 °F -  
Max Temperature 78 °F - - ()
Min Temperature 48 °F - - ()
Degree Days  
Heating Degree Days 2    
Growing Degree Days 13 (Base 50)    
Moisture  
Dew Point 21 °F    
Average Humidity 22    
Maximum Humidity 37    
Minimum Humidity 10    
Precipitation  
Precipitation 0.00 in - - ()
Sea Level Pressure  
Sea Level Pressure 29.67 in    
Wind  
Wind Speed 8 mph (WNW)    
Max Wind Speed 18 mph    
Max Gust Speed 29 mph    
Visibility 10 miles    
Events      
Averages and records for this station are not official NWS values.
T = Trace of Precipitation, MM = Missing Value Source: NWS Daily Summary

Daily Weather History Graph

Daily Weather History Graph

Search for Another Location

Airport or City:

Trip Planner

Search our weather history database for the weather conditions in past years. The results will help you decide how hot, cold, wet, or windy it might be!

Date:

Astronomy

Oct. 04, 2012 Rise Set
Actual Time 6:43 AM PDT 6:22 PM PDT
Civil Twilight 6:17 AM PDT 6:48 PM PDT
Nautical Twilight 5:47 AM PDT 7:19 PM PDT
Astronomical Twilight 5:16 AM PDT 7:49 PM PDT
Moon 9:07 PM PDT (10/4) 10:59 AM PDT (10/4)
Length of Visible Light 12h 31m
Length of Day
11h 39m
Waning Gibbous, 81% of the Moon is Illuminated
Oct 4
Waning Gibbous
Oct 8
Last Quarter
Oct 15
New
Oct 21
First Quarter
Oct 29
Full

Hourly Weather History & Observations

Time (PDT) Temp. Dew Point Humidity Pressure Visibility Wind Dir Wind Speed Gust Speed Precip Events Conditions
12:56 AM 53.1 °F 21.9 °F 30% 29.65 in 10.0 mi Variable 4.6 mph - N/A   Clear
1:56 AM 54.0 °F 23.0 °F 30% 29.65 in 10.0 mi NW 5.8 mph - N/A   Clear
2:56 AM 52.0 °F 23.0 °F 32% 29.65 in 10.0 mi WNW 8.1 mph - N/A   Clear
3:56 AM 52.0 °F 21.9 °F 31% 29.65 in 10.0 mi West 5.8 mph - N/A   Clear
4:56 AM 48.9 °F 21.9 °F 35% 29.66 in 10.0 mi West 3.5 mph - N/A   Clear
5:56 AM 48.9 °F 21.9 °F 35% 29.68 in 10.0 mi West 3.5 mph - N/A   Clear
6:56 AM 48.0 °F 23.0 °F 37% 29.72 in 10.0 mi NW 6.9 mph - N/A   Clear
7:56 AM 61.0 °F 26.1 °F 26% 29.68 in 10.0 mi Calm Calm - N/A   Clear
8:56 AM 61.0 °F 24.1 °F 24% 29.69 in 10.0 mi SE 4.6 mph - N/A   Clear
9:56 AM 68.0 °F 24.1 °F 19% 29.69 in 10.0 mi South 10.4 mph - N/A   Clear
10:56 AM 73.9 °F 21.9 °F 14% 29.66 in 10.0 mi WNW 12.7 mph 21.9 mph N/A   Clear
12:56 PM 77.0 °F 21.9 °F 13% 29.67 in 10.0 mi WNW 17.3 mph 25.3 mph N/A   Clear
1:56 PM 77.0 °F 19.9 °F 12% 29.65 in 10.0 mi West 15.0 mph 26.5 mph N/A   Clear
2:56 PM 78.1 °F 18.0 °F 10% 29.64 in 10.0 mi West 18.4 mph 25.3 mph N/A   Clear
3:56 PM 78.1 °F 16.0 °F 10% 29.63 in 10.0 mi WNW 18.4 mph 28.8 mph N/A   Clear
4:56 PM 77.0 °F 18.0 °F 11% 29.64 in 10.0 mi WNW 16.1 mph 20.7 mph N/A   Clear
5:56 PM 73.0 °F 18.0 °F 12% 29.65 in 10.0 mi NW 10.4 mph - N/A   Clear
6:56 PM 64.9 °F 17.1 °F 16% 29.68 in 10.0 mi NW 10.4 mph - N/A   Clear
7:56 PM 62.1 °F 17.1 °F 18% 29.66 in 10.0 mi NW 11.5 mph - N/A   Clear
8:56 PM 57.9 °F 17.1 °F 20% 29.68 in 10.0 mi WNW 9.2 mph - N/A   Clear
9:56 PM 60.1 °F 19.0 °F 20% 29.68 in 10.0 mi West 6.9 mph - N/A   Partly Cloudy
10:56 PM 55.0 °F 18.0 °F 23% 29.68 in 10.0 mi WNW 11.5 mph - N/A   Clear
11:56 PM 53.1 °F 19.0 °F 26% 29.68 in 10.0 mi WNW 11.5 mph - N/A   Clear